Weather History for Seretse Khama, Botswana

Change the Weather History Date:

Thursday, December 6, 2012

  Actual Average Record
Temperature  
Mean Temperature 68 °F -  
Max Temperature 75 °F 86 °F 95 °F (1997)
Min Temperature 62 °F 64 °F 57 °F (2002)
Cooling Degree Days 4    
Growing Degree Days 18 (Base 50)    
Moisture  
Dew Point 59 °F    
Average Humidity 71    
Maximum Humidity 94    
Minimum Humidity 47    
Precipitation  
Precipitation 0.00 in - - ()
Sea Level Pressure  
Sea Level Pressure 30.09 in    
Wind  
Wind Speed 10 mph ()    
Max Wind Speed 21 mph    
Max Gust Speed 32 mph    
Visibility 5.9 miles    
Events Rain , Thunderstorm    
Averages and records for this station are not official NWS values.
T = Trace of Precipitation, MM = Missing Value Source: Averaged Metar Reports

Daily Weather History Graph

Daily Weather History Graph

Search for Another Location

Airport:

Trip Planner

Search our weather history database for the weather conditions in past years. The results will help you decide how hot, cold, wet, or windy it might be!

Date:

Astronomy

Dec. 06, 2012 Rise Set
Actual Time 5:19 AM CAT 6:55 PM CAT
Civil Twilight 4:54 AM CAT 7:20 PM CAT
Nautical Twilight 4:23 AM CAT 7:51 PM CAT
Astronomical Twilight 3:51 AM CAT 8:23 PM CAT
Moon No Moon Rise 11:54 AM CAT (12/6)
Length of Visible Light 14h 26m
Length of Day
13h 35m
Waning Gibbous, 52% of the Moon is Illuminated
Dec 6
Waning Gibbous
Dec 6
Last Quarter
Dec 13
New
Dec 20
First Quarter
Dec 28
Full

Hourly Weather History & Observations

Time (CAT) Temp. Dew Point Humidity Pressure Visibility Wind Dir Wind Speed Gust Speed Precip Events Conditions
12:00 AM 73.4 °F 51.8 °F 47% 30.04 in 6.2 mi South 20.7 mph 32.2 mph N/A   Mostly Cloudy
1:00 AM 69.8 °F 53.6 °F 56% 30.04 in - SE 18.4 mph - N/A   Clear
2:00 AM 68.0 °F 53.6 °F 60% 30.04 in - ESE 16.1 mph - N/A   Clear
3:00 AM 68.0 °F 53.6 °F 60% 30.04 in - ESE 13.8 mph - N/A   Clear
4:00 AM 68.0 °F 53.6 °F 60% 30.06 in - East 15.0 mph - N/A   Clear
5:00 AM 66.2 °F 53.6 °F 64% 30.06 in - ENE 6.9 mph - N/A   Clear
6:00 AM 66.2 °F 53.6 °F 64% 30.09 in - ESE 8.1 mph - N/A   Clear
7:00 AM 69.8 °F 57.2 °F 64% 30.09 in - East 13.8 mph - N/A   Clear
8:00 AM 69.8 °F 59.0 °F 68% 30.15 in 6.2 mi East 8.1 mph - N/A   Scattered Clouds
9:00 AM 66.2 °F 62.6 °F 88% 30.18 in 6.2 mi Variable 2.3 mph - N/A Rain , Thunderstorm Thunderstorms and Rain
10:00 AM 64.4 °F 60.8 °F 88% 30.18 in 5.0 mi SSW 5.8 mph - N/A Rain , Thunderstorm Thunderstorms and Rain
11:00 AM 62.6 °F 60.8 °F 94% 30.18 in 3.1 mi WSW 3.5 mph - N/A Rain , Thunderstorm Thunderstorms and Rain
12:00 PM 64.4 °F 62.6 °F 94% 30.18 in 6.2 mi ENE 5.8 mph - N/A Rain , Thunderstorm Thunderstorms and Rain
1:00 PM 64.4 °F 62.6 °F 94% 30.15 in 6.2 mi NNE 4.6 mph - N/A Rain Light Rain
2:00 PM 69.8 °F 60.8 °F 73% 30.09 in 6.2 mi ESE 8.1 mph - N/A   Scattered Clouds
3:00 PM 75.2 °F 66.2 °F 73% 30.09 in 6.2 mi East 9.2 mph - N/A   Scattered Clouds
4:00 PM 75.2 °F 59.0 °F 57% 30.06 in 6.2 mi East 13.8 mph - N/A   Partly Cloudy
5:00 PM 75.2 °F 60.8 °F 61% 30.04 in 6.2 mi East 10.4 mph - N/A   Partly Cloudy
6:00 PM 75.2 °F 59.0 °F 57% 30.04 in 6.2 mi ENE 6.9 mph - N/A   Partly Cloudy
7:00 PM 71.6 °F 62.6 °F 73% 30.01 in 6.2 mi NNW 2.3 mph - N/A   Partly Cloudy
8:00 PM 69.8 °F 62.6 °F 78% 30.04 in - ENE 5.8 mph - N/A   Clear
9:00 PM 69.8 °F 60.8 °F 73% 30.04 in - East 6.9 mph - N/A   Clear
10:00 PM 68.0 °F 62.6 °F 83% 30.09 in - SE 6.9 mph - N/A   Clear
11:00 PM 68.0 °F 62.6 °F 83% 30.09 in - ENE 8.1 mph - N/A   Clear